Location: Unspecified
(0.0000°N, 0.0000°E)
Time: 03:49:59
(UTC+00:00)

O/OREOS (USA 219) - Visible Passes

Search period start: 18 May 2021 00:00
Search period end: 28 May 2021 00:00
Orbit: 621 x 646 km, 72.0° (Epoch: 22 May)

Date Brightness Start Highest point End Pass type
(mag) Time Alt. Az. Time Alt. Az. Time Alt. Az.
18 May ? 03:51:43 10° ESE 03:52:47 11° ESE 03:53:51 10° E visible
18 May ? 05:28:01 10° SW 05:31:54 30° WNW 05:35:48 10° NNW visible
19 May ? 04:11:46 15° SSE 04:14:48 32° ESE 04:18:45 10° NE visible
20 May ? 04:34:34 30° SSW 04:36:45 80° WNW 04:41:11 10° NNE visible
21 May ? 03:19:46 13° ESE 03:19:46 13° ESE 03:21:33 10° ENE visible
21 May ? 04:57:17 22° WSW 04:58:43 26° WNW 05:02:24 10° NNW visible
22 May ? 03:42:24 34° E 03:42:24 34° E 03:45:41 10° NE visible
23 May ? 04:04:57 41° N 04:04:57 41° N 04:07:57 10° N visible
24 May ? 04:27:25 17° NW 04:27:25 17° NW 04:28:58 10° NNW visible
25 May ? 03:12:18 12° NNE 03:12:18 12° NNE 03:12:36 10° NNE visible
26 May ? 03:34:36 11° N 03:34:36 11° N 03:34:42 10° N visible
